This is the latest recevied weather packets stored in our database for station/object PY2XH-13. If no packets are shown the sender has not sent any weather packets the latest 10 day(s).
| Time | Temp. | Humidity | Pressure | Rain* | Wind** | Luminosity | Snow |
|---|---|---|---|---|---|---|---|
| 1777191365 | 23.89° C | 61% | 1026.9 hPa | - | - | - | - |
| 1777189565 | 23.33° C | 62% | 1026.9 hPa | - | - | - | - |
| 1777187764 | 23.89° C | 61% | 1027.1 hPa | - | - | - | - |
| 1777185965 | 23.89° C | 62% | 1027.2 hPa | - | - | - | - |
| 1777184164 | 23.89° C | 61% | 1027.2 hPa | - | - | - | - |
| 1777182364 | 24.44° C | 61% | 1027.3 hPa | - | - | - | - |
| 1777180564 | 23.89° C | 61% | 1027.3 hPa | - | - | - | - |
| 1777178765 | 23.89° C | 60% | 1027.2 hPa | - | - | - | - |
| 1777176964 | 24.44° C | 60% | 1027.5 hPa | - | - | - | - |
| 1777175164 | 24.44° C | 59% | 1027.7 hPa | - | - | - | - |
| 1777173365 | 24.44° C | 57% | 1028.1 hPa | - | - | - | - |
| 1777171565 | 25.56° C | 55% | 1028.3 hPa | - | - | - | - |
| 1777169764 | 25° C | 55% | 1028.4 hPa | - | - | - | - |
| 1777167964 | 25.56° C | 55% | 1028.5 hPa | - | - | - | - |
| 1777166165 | 25.56° C | 56% | 1028.4 hPa | - | - | - | - |
| 1777164365 | 25.56° C | 54% | 1028.5 hPa | - | - | - | - |
| 1777162565 | 25.56° C | 55% | 1028.4 hPa | - | - | - | - |
| 1777160765 | 25° C | 55% | 1028.4 hPa | - | - | - | - |
| 1777158965 | 25° C | 55% | 1028.2 hPa | - | - | - | - |
| 1777157165 | 25° C | 55% | 1028.1 hPa | - | - | - | - |
| 1777155364 | 25° C | 54% | 1027.7 hPa | - | - | - | - |
| 1777153565 | 25.56° C | 52% | 1027.6 hPa | - | - | - | - |
| 1777151765 | 25.56° C | 51% | 1027.5 hPa | - | - | - | - |
| 1777149965 | 26.11° C | 48% | 1027.5 hPa | - | - | - | - |
| 1777148164 | 26.11° C | 46% | 1027.3 hPa | - | - | - | - |
* Rain since midnight (hover to see other rain measurements)
** Current wind speed in m/s (hover to see current wind gust speed)